| time (UTC) | temp C | wind direction | speed KPH | gust KPH | rain 1hr cm | rain 24hr cm | rain mn cm | humidity % | barometer mb |
| 20260506232034 | 13 | 208 | 3.2 | 11.3 | 0.03 | 0.10 | 0.10 | 93 | 1006.7 |
| 20260506231537 | 13 | 148 | 4.8 | 11.3 | 0.03 | 0.10 | 0.10 | 93 | 1006.8 |
| 20260506231029 | 13 | 203 | 4.8 | 11.3 | 0.03 | 0.10 | 0.10 | 93 | 1006.8 |
| 20260506230528 | 13 | 160 | 6.4 | 11.3 | 0.03 | 0.10 | 0.10 | 93 | 1006.8 |
| 20260506230045 | 13 | 181 | 6.4 | 11.3 | 0.03 | 0.10 | 0.10 | 93 | 1006.8 |
| 20260506225531 | 13 | 188 | 1.6 | 8.0 | 0.03 | 0.10 | 0.10 | 94 | 1006.9 |
| 20260506225029 | 13 | 167 | 3.2 | 9.7 | 0.03 | 0.10 | 0.10 | 93 | 1006.9 |
| 20260506224549 | 13 | 142 | 3.2 | 9.7 | 0.03 | 0.10 | 0.10 | 93 | 1006.9 |
| 20260506224027 | 13 | 182 | 3.2 | 11.3 | 0.05 | 0.10 | 0.10 | 93 | 1006.8 |
| 20260506223527 | 13 | 148 | 4.8 | 11.3 | 0.03 | 0.08 | 0.08 | 93 | 1006.7 |
| 20260506223042 | 13 | 128 | 4.8 | 9.7 | 0.03 | 0.08 | 0.08 | 93 | 1006.7 |
| 20260506222528 | 14 | 168 | 3.2 | 8.0 | 0.03 | 0.08 | 0.08 | 93 | 1006.7 |
| 20260506222029 | 14 | 195 | 4.8 | 9.7 | 0.03 | 0.08 | 0.08 | 93 | 1006.7 |
| 20260506221542 | 14 | 160 | 3.2 | 12.9 | 0.03 | 0.08 | 0.08 | 93 | 1006.8 |
| 20260506221029 | 14 | 136 | 3.2 | 12.9 | 0.03 | 0.08 | 0.08 | 93 | 1006.9 |
| 20260506220528 | 14 | 146 | 3.2 | 14.5 | 0.03 | 0.08 | 0.08 | 93 | 1007.1 |
| 20260506220045 | 14 | 179 | 3.2 | 14.5 | 0.03 | 0.08 | 0.08 | 92 | 1007.1 |
| 20260506215527 | 14 | 131 | 3.2 | 9.7 | 0.03 | 0.08 | 0.08 | 92 | 1007.3 |
| 20260506215028 | 14 | 172 | 4.8 | 11.3 | 0.03 | 0.08 | 0.08 | 92 | 1007.1 |
| 20260506214536 | 14 | 188 | 4.8 | 11.3 | 0.03 | 0.08 | 0.08 | 91 | 1007.2 |
| 20260506214033 | 14 | 186 | 4.8 | 14.5 | 0.00 | 0.05 | 0.05 | 91 | 1007.2 |
| 20260506213528 | 15 | 112 | 4.8 | 14.5 | 0.00 | 0.05 | 0.05 | 90 | 1007.1 |
| 20260506213035 | 15 | 193 | 4.8 | 12.9 | 0.00 | 0.05 | 0.05 | 90 | 1007.3 |
| 20260506212529 | 15 | 182 | 6.4 | 12.9 | 0.00 | 0.05 | 0.05 | 89 | 1007.3 |
| 20260506212027 | 15 | 153 | 4.8 | 16.1 | 0.00 | 0.05 | 0.05 | 89 | 1007.4 |
| 20260506211550 | 15 | 163 | 4.8 | 16.1 | 0.00 | 0.05 | 0.05 | 89 | 1007.4 |
| 20260506211027 | 15 | 205 | 4.8 | 12.9 | 0.00 | 0.05 | 0.05 | 89 | 1007.5 |
| 20260506210527 | 15 | 160 | 4.8 | 17.7 | 0.00 | 0.05 | 0.05 | 89 | 1007.5 |
| 20260506210039 | 15 | 169 | 6.4 | 17.7 | 0.00 | 0.05 | 0.05 | 89 | 1007.6 |
| 20260506205527 | 15 | 177 | 8.0 | 17.7 | 0.00 | 0.05 | 0.05 | 89 | 1007.5 |
| 20260506205027 | 15 | 84 | 4.8 | 11.3 | 0.00 | 0.05 | 0.05 | 89 | 1007.6 |
| 20260506204539 | 15 | 153 | 4.8 | 11.3 | 0.00 | 0.05 | 0.05 | 89 | 1007.6 |
| 20260506204028 | 15 | 188 | 6.4 | 14.5 | 0.03 | 0.05 | 0.05 | 89 | 1007.7 |
| 20260506203528 | 15 | 176 | 4.8 | 14.5 | 0.03 | 0.05 | 0.05 | 89 | 1007.7 |
| 20260506203047 | 15 | 203 | 4.8 | 11.3 | 0.03 | 0.05 | 0.05 | 89 | 1007.7 |
| 20260506202528 | 15 | 168 | 6.4 | 11.3 | 0.03 | 0.05 | 0.05 | 89 | 1007.8 |
| 20260506202029 | 15 | 174 | 3.2 | 14.5 | 0.05 | 0.05 | 0.05 | 89 | 1007.8 |
| 20260506201537 | 15 | 152 | 4.8 | 14.5 | 0.05 | 0.05 | 0.05 | 88 | 1007.9 |
| 20260506201028 | 15 | 159 | 4.8 | 16.1 | 0.05 | 0.05 | 0.05 | 88 | 1007.8 |
| 20260506200531 | 15 | 129 | 6.4 | 16.1 | 0.05 | 0.05 | 0.05 | 88 | 1007.7 |
| 20260506200042 | 15 | 160 | 6.4 | 14.5 | 0.05 | 0.05 | 0.05 | 88 | 1007.9 |
| 20260506195531 | 15 | 164 | 6.4 | 16.1 | 0.05 | 0.05 | 0.05 | 87 | 1007.9 |
| 20260506195029 | 15 | 90 | 8.0 | 16.1 | 0.05 | 0.05 | 0.05 | 87 | 1007.7 |
| 20260506194543 | 15 | 172 | 4.8 | 14.5 | 0.05 | 0.05 | 0.05 | 86 | 1007.7 |
| 20260506194029 | 16 | 148 | 4.8 | 14.5 | 0.03 | 0.03 | 0.03 | 85 | 1007.8 |
| 20260506193528 | 16 | 205 | 4.8 | 12.9 | 0.03 | 0.03 | 0.03 | 84 | 1007.9 |
| 20260506193035 | 16 | 115 | 3.2 | 9.7 | 0.03 | 0.03 | 0.03 | 83 | 1007.9 |
| 20260506192527 | 16 | 213 | 4.8 | 9.7 | 0.00 | 0.00 | 0.00 | 82 | 1007.9 |
| 20260506192027 | 16 | 177 | 3.2 | 12.9 | 0.00 | 0.00 | 0.00 | 81 | 1008.0 |
| 20260506191543 | 16 | 153 | 1.6 | 12.9 | 0.00 | 0.00 | 0.00 | 81 | 1008.0 |
| 20260506191028 | 16 | 188 | 4.8 | 9.7 | 0.00 | 0.00 | 0.00 | 80 | 1008.0 |
| 20260506190529 | 17 | 203 | 4.8 | 9.7 | 0.00 | 0.00 | 0.00 | 78 | 1008.0 |
| 20260506190043 | 17 | 124 | 4.8 | 12.9 | 0.00 | 0.00 | 0.00 | 77 | 1008.2 |
| 20260506185527 | 17 | 205 | 3.2 | 12.9 | 0.00 | 0.00 | 0.00 | 75 | 1008.2 |
| 20260506185030 | 17 | 165 | 8.0 | 14.5 | 0.00 | 0.00 | 0.00 | 74 | 1008.2 |
| 20260506184541 | 18 | 129 | 6.4 | 14.5 | 0.00 | 0.00 | 0.00 | 72 | 1008.2 |
| 20260506184028 | 18 | 105 | 4.8 | 8.0 | 0.00 | 0.00 | 0.00 | 72 | 1008.1 |
| 20260506183532 | 18 | 205 | 4.8 | 9.7 | 0.00 | 0.00 | 0.00 | 71 | 1008.1 |
| 20260506183041 | 18 | 192 | 3.2 | 12.9 | 0.00 | 0.00 | 0.00 | 71 | 1008.3 |
| 20260506182528 | 18 | 200 | 6.4 | 12.9 | 0.00 | 0.00 | 0.00 | 70 | 1008.4 |
| 20260506182029 | 18 | 211 | 8.0 | 16.1 | 0.00 | 0.00 | 0.00 | 70 | 1008.4 |
| 20260506181547 | 18 | 240 | 4.8 | 16.1 | 0.00 | 0.00 | 0.00 | 70 | 1008.5 |
| 20260506181029 | 19 | 154 | 6.4 | 17.7 | 0.00 | 0.00 | 0.00 | 69 | 1008.3 |
| 20260506180529 | 19 | 131 | 3.2 | 17.7 | 0.00 | 0.00 | 0.00 | 68 | 1008.3 |
| 20260506180044 | 19 | 153 | 8.0 | 17.7 | 0.00 | 0.00 | 0.00 | 67 | 1008.5 |
| 20260506175530 | 19 | 217 | 6.4 | 14.5 | 0.00 | 0.00 | 0.00 | 67 | 1008.5 |
| 20260506175025 | 20 | 184 | 6.4 | 14.5 | 0.00 | 0.00 | 0.00 | 67 | 1008.6 |
| 20260506174542 | 20 | 210 | 6.4 | 14.5 | 0.00 | 0.00 | 0.00 | 67 | 1008.6 |
| 20260506174025 | 20 | 127 | 6.4 | 14.5 | 0.00 | 0.00 | 0.00 | 66 | 1008.6 |
| 20260506173529 | 20 | 141 | 6.4 | 14.5 | 0.00 | 0.00 | 0.00 | 66 | 1008.7 |
| 20260506173054 | 20 | 134 | 6.4 | 12.9 | 0.00 | 0.00 | 0.00 | 66 | 1008.8 |
| 20260506172529 | 20 | 135 | 6.4 | 12.9 | 0.00 | 0.00 | 0.00 | 65 | 1008.9 |
| 20260506172028 | 20 | 146 | 4.8 | 19.3 | 0.00 | 0.00 | 0.00 | 65 | 1008.9 |
| 20260506171537 | 20 | 172 | 8.0 | 19.3 | 0.00 | 0.00 | 0.00 | 64 | 1008.8 |
| 20260506171029 | 20 | 195 | 9.7 | 19.3 | 0.00 | 0.00 | 0.00 | 63 | 1008.9 |
| 20260506170529 | 21 | 165 | 9.7 | 22.5 | 0.00 | 0.00 | 0.00 | 63 | 1008.8 |
| 20260506170037 | 21 | 165 | 11.3 | 22.5 | 0.00 | 0.00 | 0.00 | 62 | 1008.7 |
| 20260506165528 | 21 | 151 | 9.7 | 19.3 | 0.00 | 0.00 | 0.00 | 62 | 1008.6 |
| 20260506165029 | 21 | 188 | 9.7 | 19.3 | 0.00 | 0.00 | 0.00 | 63 | 1008.9 |
| 20260506164536 | 21 | 163 | 8.0 | 19.3 | 0.00 | 0.00 | 0.00 | 64 | 1008.9 |
| 20260506164030 | 20 | 179 | 6.4 | 29.0 | 0.00 | 0.00 | 0.00 | 64 | 1009.1 |
| 20260506163527 | 20 | 207 | 11.3 | 29.0 | 0.00 | 0.00 | 0.00 | 63 | 1009.3 |
| 20260506163042 | 21 | 185 | 9.7 | 20.9 | 0.00 | 0.00 | 0.00 | 63 | 1009.3 |
| 20260506162525 | 21 | 203 | 6.4 | 20.9 | 0.00 | 0.00 | 0.00 | 63 | 1009.3 |
| 20260506162030 | 21 | 168 | 11.3 | 20.9 | 0.00 | 0.00 | 0.00 | 63 | 1009.4 |
| 20260506161543 | 21 | 25 | 4.8 | 20.9 | 0.00 | 0.00 | 0.00 | 63 | 1009.5 |
| 20260506161031 | 21 | 204 | 8.0 | 22.5 | 0.00 | 0.00 | 0.00 | 63 | 1009.5 |
| 20260506160529 | 21 | 207 | 8.0 | 22.5 | 0.00 | 0.00 | 0.00 | 63 | 1009.7 |
| 20260506160041 | 21 | 154 | 9.7 | 22.5 | 0.00 | 0.00 | 0.00 | 62 | 1009.8 |
| 20260506155529 | 21 | 165 | 8.0 | 20.9 | 0.00 | 0.00 | 0.00 | 63 | 1009.7 |
| 20260506155028 | 21 | 156 | 9.7 | 20.9 | 0.00 | 0.00 | 0.00 | 62 | 1009.8 |
| 20260506154538 | 21 | 167 | 6.4 | 17.7 | 0.00 | 0.00 | 0.00 | 62 | 1009.8 |
| 20260506154028 | 21 | 223 | 6.4 | 19.3 | 0.00 | 0.00 | 0.00 | 62 | 1009.8 |
| 20260506153528 | 21 | 188 | 9.7 | 19.3 | 0.00 | 0.00 | 0.00 | 62 | 1009.8 |
| 20260506153035 | 21 | 201 | 6.4 | 16.1 | 0.00 | 0.00 | 0.00 | 63 | 1009.9 |
| 20260506152527 | 21 | 138 | 8.0 | 17.7 | 0.00 | 0.00 | 0.00 | 63 | 1010.0 |
| 20260506152028 | 21 | 220 | 3.2 | 17.7 | 0.00 | 0.00 | 0.00 | 65 | 1010.0 |
| 20260506151545 | 21 | 204 | 9.7 | 19.3 | 0.00 | 0.00 | 0.00 | 64 | 1010.0 |
| 20260506151028 | 20 | 228 | 6.4 | 19.3 | 0.00 | 0.00 | 0.00 | 65 | 1010.0 |
| 20260506150529 | 20 | 151 | 4.8 | 17.7 | 0.00 | 0.00 | 0.00 | 65 | 1010.1 |
| 20260506150049 | 20 | 168 | 4.8 | 11.3 | 0.00 | 0.00 | 0.00 | 66 | 1010.1 |
| 20260506145527 | 20 | 156 | 6.4 | 17.7 | 0.00 | 0.00 | 0.00 | 66 | 1010.2 |
| 20260506145028 | 20 | 187 | 6.4 | 17.7 | 0.00 | 0.00 | 0.00 | 66 | 1010.1 |
| 20260506144543 | 20 | 193 | 4.8 | 19.3 | 0.00 | 0.00 | 0.00 | 67 | 1010.2 |
| 20260506144031 | 20 | 205 | 8.0 | 19.3 | 0.00 | 0.00 | 0.00 | 66 | 1010.1 |
| 20260506143528 | 20 | 129 | 4.8 | 14.5 | 0.00 | 0.00 | 0.00 | 67 | 1010.0 |
| 20260506143036 | 20 | 138 | 4.8 | 17.7 | 0.00 | 0.00 | 0.00 | 67 | 1010.0 |
| 20260506142528 | 20 | 186 | 8.0 | 27.4 | 0.00 | 0.00 | 0.00 | 67 | 1009.9 |
| 20260506142027 | 20 | 175 | 11.3 | 27.4 | 0.00 | 0.00 | 0.00 | 66 | 1009.8 |
| 20260506141537 | 20 | 192 | 9.7 | 20.9 | 0.00 | 0.00 | 0.00 | 65 | 1009.9 |
| 20260506141032 | 20 | 201 | 9.7 | 25.7 | 0.00 | 0.00 | 0.00 | 65 | 1009.9 |
| 20260506140528 | 20 | 190 | 9.7 | 25.7 | 0.00 | 0.00 | 0.00 | 65 | 1010.0 |
| 20260506140043 | 20 | 180 | 9.7 | 22.5 | 0.00 | 0.00 | 0.00 | 65 | 1009.9 |
| 20260506135526 | 20 | 211 | 1.6 | 12.9 | 0.00 | 0.00 | 0.00 | 68 | 1009.9 |
| 20260506135029 | 20 | 143 | 8.0 | 16.1 | 0.00 | 0.00 | 0.00 | 67 | 1009.9 |
| 20260506134547 | 20 | 217 | 4.8 | 16.1 | 0.00 | 0.00 | 0.00 | 67 | 1009.9 |
| 20260506134029 | 19 | 165 | 8.0 | 16.1 | 0.00 | 0.00 | 0.00 | 68 | 1009.9 |
| 20260506133529 | 19 | 150 | 6.4 | 20.9 | 0.00 | 0.00 | 0.00 | 70 | 1010.1 |
| 20260506133038 | 18 | 148 | 6.4 | 20.9 | 0.00 | 0.00 | 0.00 | 70 | 1010.4 |
| 20260506132528 | 18 | 166 | 8.0 | 16.1 | 0.00 | 0.00 | 0.00 | 70 | 1010.6 |
| 20260506132030 | 19 | 121 | 4.8 | 17.7 | 0.00 | 0.00 | 0.00 | 69 | 1010.6 |
| 20260506131547 | 19 | 153 | 8.0 | 17.7 | 0.00 | 0.00 | 0.00 | 71 | 1010.5 |
| 20260506131030 | 18 | 150 | 6.4 | 14.5 | 0.00 | 0.00 | 0.00 | 72 | 1010.7 |
| 20260506130532 | 18 | 159 | 4.8 | 11.3 | 0.00 | 0.00 | 0.00 | 73 | 1010.6 |
| 20260506130052 | 18 | 155 | 4.8 | 14.5 | 0.00 | 0.00 | 0.00 | 73 | 1010.5 |
| 20260506125527 | 18 | 177 | 6.4 | 14.5 | 0.00 | 0.00 | 0.00 | 72 | 1010.6 |
| 20260506125028 | 18 | 176 | 4.8 | 11.3 | 0.00 | 0.00 | 0.00 | 74 | 1010.6 |
| 20260506124535 | 17 | 210 | 4.8 | 12.9 | 0.00 | 0.00 | 0.00 | 76 | 1010.6 |
| 20260506124028 | 17 | 129 | 4.8 | 12.9 | 0.00 | 0.00 | 0.00 | 76 | 1010.7 |
| 20260506123531 | 17 | 210 | 4.8 | 12.9 | 0.00 | 0.00 | 0.00 | 76 | 1010.6 |
| 20260506123043 | 17 | 150 | 4.8 | 12.9 | 0.00 | 0.00 | 0.00 | 77 | 1010.6 |
| 20260506122531 | 17 | 146 | 6.4 | 12.9 | 0.00 | 0.00 | 0.00 | 77 | 1010.7 |
| 20260506122028 | 17 | 159 | 6.4 | 12.9 | 0.00 | 0.00 | 0.00 | 78 | 1010.6 |
| 20260506121539 | 17 | 199 | 4.8 | 11.3 | 0.00 | 0.00 | 0.00 | 78 | 1010.6 |
| 20260506121028 | 16 | 161 | 4.8 | 11.3 | 0.00 | 0.00 | 0.00 | 79 | 1010.4 |
| 20260506120532 | 16 | 125 | 3.2 | 8.0 | 0.00 | 0.00 | 0.00 | 80 | 1010.4 |
| 20260506120036 | 16 | 179 | 3.2 | 8.0 | 0.00 | 0.00 | 0.00 | 81 | 1010.6 |
| 20260506115529 | 16 | 108 | 3.2 | 8.0 | 0.00 | 0.00 | 0.00 | 82 | 1010.8 |
| 20260506115028 | 15 | 163 | 1.6 | 9.7 | 0.00 | 0.00 | 0.00 | 84 | 1010.8 |
| 20260506114535 | 15 | 161 | 3.2 | 9.7 | 0.00 | 0.00 | 0.00 | 84 | 1011.0 |
| 20260506114031 | 15 | 161 | 3.2 | 8.0 | 0.00 | 0.00 | 0.00 | 84 | 1011.1 |
| 20260506113527 | 15 | 150 | 1.6 | 6.4 | 0.00 | 0.00 | 0.00 | 84 | 1011.0 |
| 20260506113036 | 15 | 155 | 3.2 | 6.4 | 0.00 | 0.00 | 0.00 | 84 | 1011.1 |
| 20260506112529 | 15 | 153 | 3.2 | 8.0 | 0.00 | 0.00 | 0.00 | 84 | 1011.1 |
| 20260506112028 | 15 | 0 | 3.2 | 8.0 | 0.00 | 0.00 | 0.00 | 84 | 1011.0 |
| 20260506111535 | 15 | 131 | 3.2 | 8.0 | 0.00 | 0.00 | 0.00 | 84 | 1011.1 |
| 20260506111030 | 14 | 148 | 3.2 | 8.0 | 0.00 | 0.00 | 0.00 | 86 | 1011.0 |
| 20260506110532 | 14 | 167 | 1.6 | 6.4 | 0.00 | 0.00 | 0.00 | 87 | 1011.0 |
| 20260506110038 | 13 | 136 | 3.2 | 6.4 | 0.00 | 0.00 | 0.00 | 87 | 1011.0 |
| 20260506105527 | 13 | 151 | 1.6 | 6.4 | 0.00 | 0.00 | 0.00 | 86 | 1011.0 |
| 20260506105030 | 14 | 142 | 1.6 | 6.4 | 0.00 | 0.00 | 0.00 | 86 | 1011.0 |
| 20260506104536 | 14 | 153 | 0.0 | 4.8 | 0.00 | 0.00 | 0.00 | 86 | 1011.0 |
| 20260506104027 | 14 | 149 | 1.6 | 12.9 | 0.00 | 0.00 | 0.00 | 86 | 1011.1 |
| 20260506103528 | 14 | 150 | 1.6 | 12.9 | 0.00 | 0.00 | 0.00 | 86 | 1011.0 |
| 20260506103040 | 14 | 124 | 1.6 | 8.0 | 0.00 | 0.00 | 0.00 | 86 | 1011.0 |
| 20260506102528 | 14 | 145 | 1.6 | 8.0 | 0.00 | 0.00 | 0.00 | 86 | 1011.1 |
| 20260506102028 | 14 | 145 | 3.2 | 8.0 | 0.00 | 0.00 | 0.00 | 86 | 1010.9 |
| 20260506101536 | 14 | 142 | 1.6 | 8.0 | 0.00 | 0.00 | 0.00 | 85 | 1010.9 |
| 20260506101028 | 14 | 147 | 3.2 | 11.3 | 0.00 | 0.00 | 0.00 | 85 | 1011.0 |
| 20260506100529 | 14 | 146 | 3.2 | 11.3 | 0.00 | 0.00 | 0.00 | 85 | 1010.9 |
| 20260506100038 | 14 | 171 | 1.6 | 8.0 | 0.00 | 0.00 | 0.00 | 85 | 1010.8 |
| 20260506095528 | 14 | 153 | 3.2 | 8.0 | 0.00 | 0.00 | 0.00 | 85 | 1010.8 |
| 20260506095027 | 14 | 149 | 1.6 | 8.0 | 0.00 | 0.00 | 0.00 | 85 | 1010.8 |
| 20260506094549 | 14 | 172 | 4.8 | 8.0 | 0.00 | 0.00 | 0.00 | 85 | 1010.7 |
| 20260506094031 | 14 | 162 | 4.8 | 9.7 | 0.00 | 0.00 | 0.00 | 85 | 1010.7 |
| 20260506093527 | 14 | 209 | 1.6 | 9.7 | 0.00 | 0.00 | 0.00 | 84 | 1010.7 |
| 20260506093039 | 14 | 160 | 3.2 | 9.7 | 0.00 | 0.00 | 0.00 | 84 | 1010.8 |
| 20260506092528 | 14 | 201 | 3.2 | 9.7 | 0.00 | 0.00 | 0.00 | 84 | 1010.9 |
| 20260506092029 | 14 | 227 | 1.6 | 9.7 | 0.00 | 0.00 | 0.00 | 84 | 1010.8 |
| 20260506091537 | 14 | 200 | 3.2 | 9.7 | 0.00 | 0.00 | 0.00 | 84 | 1010.9 |
| 20260506091030 | 14 | 160 | 3.2 | 9.7 | 0.00 | 0.00 | 0.00 | 84 | 1010.8 |
| 20260506090527 | 14 | 196 | 4.8 | 9.7 | 0.00 | 0.00 | 0.00 | 84 | 1010.9 |
| 20260506090035 | 15 | 188 | 4.8 | 9.7 | 0.00 | 0.00 | 0.00 | 84 | 1010.9 |
| 20260506085527 | 15 | 155 | 3.2 | 8.0 | 0.00 | 0.00 | 0.00 | 83 | 1011.0 |
| 20260506085027 | 15 | 170 | 3.2 | 14.5 | 0.00 | 0.00 | 0.00 | 83 | 1011.0 |
| 20260506084545 | 15 | 147 | 6.4 | 14.5 | 0.00 | 0.00 | 0.00 | 83 | 1011.1 |
| 20260506084028 | 15 | 195 | 3.2 | 6.4 | 0.00 | 0.00 | 0.00 | 82 | 1011.1 |
| 20260506083527 | 15 | 178 | 3.2 | 17.7 | 0.00 | 0.00 | 0.00 | 82 | 1011.1 |
| 20260506083039 | 15 | 224 | 3.2 | 17.7 | 0.00 | 0.00 | 0.00 | 82 | 1011.0 |
| 20260506082530 | 15 | 152 | 8.0 | 17.7 | 0.00 | 0.00 | 0.00 | 81 | 1011.1 |
| 20260506082032 | 15 | 150 | 6.4 | 12.9 | 0.00 | 0.00 | 0.00 | 81 | 1011.0 |
| 20260506081537 | 15 | 170 | 6.4 | 14.5 | 0.00 | 0.00 | 0.00 | 81 | 1011.0 |
| 20260506081028 | 15 | 203 | 6.4 | 17.7 | 0.00 | 0.00 | 0.00 | 81 | 1011.0 |
| 20260506080528 | 15 | 167 | 6.4 | 17.7 | 0.00 | 0.00 | 0.00 | 81 | 1011.0 |
| 20260506073528 | 15 | 160 | 3.2 | 16.1 | 0.00 | 0.00 | 0.00 | 80 | 1011.1 |
| 20260506073043 | 15 | 165 | 6.4 | 14.5 | 0.00 | 0.00 | 0.00 | 80 | 1010.8 |
| 20260506072531 | 15 | 195 | 3.2 | 11.3 | 0.00 | 0.00 | 0.00 | 80 | 1010.8 |
| 20260506072029 | 15 | 149 | 3.2 | 14.5 | 0.00 | 0.00 | 0.00 | 79 | 1010.9 |
| 20260506071545 | 15 | 150 | 1.6 | 14.5 | 0.00 | 0.00 | 0.00 | 79 | 1010.8 |
| 20260506071031 | 15 | 139 | 6.4 | 14.5 | 0.00 | 0.00 | 0.00 | 79 | 1010.8 |
| 20260506070531 | 15 | 169 | 4.8 | 14.5 | 0.00 | 0.00 | 0.00 | 79 | 1010.8 |
| 20260506062028 | 16 | 172 | 3.2 | 12.9 | 0.00 | 0.00 | 0.00 | 78 | 1010.7 |
| 20260506061536 | 16 | 190 | 4.8 | 14.5 | 0.00 | 0.00 | 0.00 | 78 | 1010.7 |
| 20260506061031 | 16 | 172 | 6.4 | 14.5 | 0.00 | 0.00 | 0.00 | 78 | 1010.8 |
| 20260506060531 | 16 | 178 | 4.8 | 11.3 | 0.00 | 0.00 | 0.00 | 77 | 1010.8 |
| 20260506051030 | 16 | 198 | 6.4 | 12.9 | 0.00 | 0.00 | 0.00 | 73 | 1011.3 |
| 20260506050528 | 16 | 198 | 4.8 | 11.3 | 0.00 | 0.00 | 0.00 | 73 | 1011.3 |
| 20260506045027 | 16 | 162 | 4.8 | 11.3 | 0.00 | 0.00 | 0.00 | 72 | 1011.3 |
| 20260506044536 | 16 | 153 | 4.8 | 12.9 | 0.00 | 0.00 | 0.00 | 72 | 1011.4 |
| 20260506044026 | 16 | 193 | 6.4 | 12.9 | 0.00 | 0.00 | 0.00 | 72 | 1011.5 |
| 20260506043525 | 16 | 170 | 6.4 | 17.7 | 0.00 | 0.00 | 0.00 | 72 | 1011.4 |
| 20260506043043 | 16 | 234 | 4.8 | 17.7 | 0.00 | 0.00 | 0.00 | 71 | 1011.5 |
| 20260506042525 | 16 | 131 | 6.4 | 12.9 | 0.00 | 0.00 | 0.00 | 71 | 1011.4 |
| 20260506042025 | 16 | 160 | 4.8 | 11.3 | 0.00 | 0.00 | 0.00 | 71 | 1011.4 |
| 20260506041537 | 16 | 165 | 4.8 | 12.9 | 0.00 | 0.00 | 0.00 | 71 | 1011.5 |
| 20260506041027 | 16 | 151 | 8.0 | 12.9 | 0.00 | 0.00 | 0.00 | 70 | 1011.4 |
| 20260506040529 | 16 | 193 | 6.4 | 17.7 | 0.00 | 0.00 | 0.00 | 70 | 1011.3 |
| 20260506040037 | 16 | 159 | 6.4 | 17.7 | 0.00 | 0.00 | 0.00 | 70 | 1011.3 |
| 20260506035527 | 16 | 167 | 6.4 | 16.1 | 0.00 | 0.00 | 0.00 | 70 | 1011.4 |
| 20260506035027 | 16 | 148 | 4.8 | 14.5 | 0.00 | 0.00 | 0.00 | 69 | 1011.4 |
| 20260506034535 | 16 | 168 | 4.8 | 11.3 | 0.00 | 0.00 | 0.00 | 69 | 1011.2 |
| 20260506034025 | 16 | 129 | 3.2 | 9.7 | 0.00 | 0.00 | 0.00 | 69 | 1011.3 |
| 20260506033525 | 16 | 172 | 4.8 | 12.9 | 0.00 | 0.00 | 0.00 | 69 | 1011.2 |
| 20260506033039 | 16 | 162 | 6.4 | 14.5 | 0.00 | 0.00 | 0.00 | 68 | 1011.2 |
| 20260506032527 | 16 | 206 | 8.0 | 14.5 | 0.00 | 0.00 | 0.00 | 68 | 1011.3 |
| 20260506032025 | 16 | 156 | 4.8 | 16.1 | 0.00 | 0.00 | 0.00 | 68 | 1011.2 |
| 20260506031537 | 16 | 167 | 4.8 | 16.1 | 0.00 | 0.00 | 0.00 | 68 | 1011.1 |
| 20260506031025 | 16 | 156 | 4.8 | 16.1 | 0.00 | 0.00 | 0.00 | 68 | 1011.1 |
| 20260506030527 | 17 | 194 | 4.8 | 16.1 | 0.00 | 0.00 | 0.00 | 68 | 1011.2 |
| 20260506030038 | 17 | 178 | 6.4 | 19.3 | 0.00 | 0.00 | 0.00 | 68 | 1011.2 |
| 20260506025526 | 17 | 169 | 8.0 | 19.3 | 0.00 | 0.00 | 0.00 | 67 | 1011.1 |
| 20260506025028 | 16 | 188 | 6.4 | 17.7 | 0.00 | 0.00 | 0.00 | 68 | 1011.2 |
| 20260506024545 | 16 | 150 | 3.2 | 11.3 | 0.00 | 0.00 | 0.00 | 68 | 1011.2 |
| 20260506024027 | 16 | 216 | 3.2 | 12.9 | 0.00 | 0.00 | 0.00 | 68 | 1011.2 |
| 20260506023528 | 16 | 176 | 4.8 | 12.9 | 0.00 | 0.00 | 0.00 | 68 | 1011.2 |
| 20260506023041 | 16 | 153 | 4.8 | 14.5 | 0.00 | 0.00 | 0.00 | 68 | 1011.2 |
| 20260506022530 | 16 | 219 | 6.4 | 14.5 | 0.00 | 0.00 | 0.00 | 68 | 1011.2 |
| 20260506022025 | 16 | 233 | 4.8 | 11.3 | 0.00 | 0.00 | 0.00 | 69 | 1011.2 |
| 20260506021538 | 16 | 165 | 3.2 | 11.3 | 0.00 | 0.00 | 0.00 | 69 | 1011.2 |
| 20260506021026 | 16 | 181 | 4.8 | 11.3 | 0.00 | 0.00 | 0.00 | 68 | 1011.3 |
| 20260506020529 | 16 | 193 | 4.8 | 9.7 | 0.00 | 0.00 | 0.00 | 69 | 1011.2 |
| 20260506020036 | 16 | 218 | 3.2 | 9.7 | 0.00 | 0.00 | 0.00 | 69 | 1011.2 |
| 20260506015532 | 16 | 110 | 3.2 | 14.5 | 0.00 | 0.00 | 0.00 | 69 | 1011.2 |
| 20260506015028 | 16 | 137 | 6.4 | 14.5 | 0.00 | 0.00 | 0.00 | 68 | 1011.2 |
| 20260506014538 | 16 | 168 | 4.8 | 11.3 | 0.00 | 0.00 | 0.00 | 68 | 1011.2 |
| 20260506014027 | 16 | 267 | 4.8 | 19.3 | 0.00 | 0.00 | 0.00 | 68 | 1011.1 |
| 20260506013527 | 16 | 117 | 4.8 | 19.3 | 0.00 | 0.00 | 0.00 | 68 | 1011.1 |
| 20260506013043 | 16 | 191 | 4.8 | 12.9 | 0.00 | 0.00 | 0.00 | 68 | 1011.2 |
| 20260506012528 | 16 | 142 | 6.4 | 14.5 | 0.00 | 0.00 | 0.00 | 68 | 1011.1 |
| 20260506012028 | 16 | 136 | 6.4 | 14.5 | 0.00 | 0.00 | 0.00 | 68 | 1011.1 |
| 20260506011540 | 16 | 124 | 3.2 | 14.5 | 0.00 | 0.00 | 0.00 | 68 | 1010.9 |
| 20260506011025 | 16 | 191 | 4.8 | 14.5 | 0.00 | 0.00 | 0.00 | 67 | 1010.9 |
| 20260506010525 | 16 | 136 | 6.4 | 14.5 | 0.00 | 0.00 | 0.00 | 67 | 1010.9 |
| 20260506010038 | 16 | 153 | 3.2 | 12.9 | 0.00 | 0.00 | 0.00 | 67 | 1011.0 |
| 20260506005525 | 16 | 136 | 4.8 | 12.9 | 0.00 | 0.00 | 0.00 | 67 | 1011.0 |
| 20260506005024 | 16 | 172 | 4.8 | 12.9 | 0.00 | 0.00 | 0.00 | 67 | 1010.8 |
| 20260506004536 | 16 | 153 | 3.2 | 11.3 | 0.00 | 0.00 | 0.00 | 67 | 1010.8 |
| 20260506004028 | 16 | 145 | 3.2 | 8.0 | 0.00 | 0.00 | 0.00 | 67 | 1010.8 |
| 20260506003526 | 16 | 168 | 1.6 | 11.3 | 0.00 | 0.00 | 0.00 | 67 | 1010.6 |
| 20260506003042 | 16 | 193 | 3.2 | 11.3 | 0.00 | 0.00 | 0.00 | 67 | 1010.5 |
| 20260506002525 | 16 | 231 | 8.0 | 12.9 | 0.00 | 0.00 | 0.00 | 66 | 1010.4 |
| 20260506002025 | 17 | 143 | 4.8 | 12.9 | 0.00 | 0.00 | 0.00 | 66 | 1010.3 |
| 20260506001542 | 17 | 153 | 4.8 | 16.1 | 0.00 | 0.00 | 0.00 | 66 | 1010.3 |
| 20260506001027 | 17 | 205 | 3.2 | 16.1 | 0.00 | 0.00 | 0.00 | 66 | 1010.1 |
| 20260506000525 | 17 | 195 | 3.2 | 11.3 | 0.00 | 0.00 | 0.00 | 66 | 1010.1 |
| 20260506000040 | 17 | 175 | 4.8 | 11.3 | 0.00 | 0.00 | 0.00 | 65 | 1009.9 |
| 20260505235525 | 17 | 157 | 4.8 | 11.3 | 0.00 | 0.00 | 0.00 | 65 | 1009.9 |
| 20260505235025 | 17 | 198 | 4.8 | 17.7 | 0.00 | 0.00 | 0.00 | 64 | 1009.7 |
| 20260505234538 | 17 | 153 | 6.4 | 17.7 | 0.00 | 0.00 | 0.00 | 64 | 1009.6 |
| 20260505234025 | 17 | 182 | 4.8 | 16.1 | 0.00 | 0.00 | 0.00 | 64 | 1009.6 |
| 20260505233527 | 18 | 169 | 8.0 | 16.1 | 0.00 | 0.00 | 0.00 | 63 | 1009.5 |
| 20260505233059 | 18 | 136 | 4.8 | 11.3 | 0.00 | 0.00 | 0.00 | 63 | 1009.6 |
| 20260505232527 | 18 | 157 | 3.2 | 12.9 | 0.00 | 0.00 | 0.00 | 62 | 1009.6 |